Date,TemperatureHighF,TemperatureAvgF,TemperatureLowF,DewpointHighF,DewpointAvgF,DewpointLowF,HumidityHigh,HumidityAvg,HumidityLow,PressureMaxIn,PressureMinIn,WindSpeedMaxMPH,WindSpeedAvgMPH,GustSpeedMaxMPH,PrecipitationSumIn
2013-1-1,31.2,28.1,23.3,30.9,27.1,20.6,100,96,88,30.04,29.92,18,1,18,0.00
2013-1-2,24.5,20.0,15.7,18.1,16.5,15.2,98,87,74,30.22,30.13,13,1,13,0.00
2013-1-3,31.4,19.8,6.9,23.9,16.8,0.0,100,89,73,30.20,30.11,18,1,18,0.00
2013-1-4,30.1,28.2,26.0,26.1,23.8,22.0,94,83,74,30.19,30.10,18,2,18,0.00
2013-1-5,34.8,29.0,25.0,27.0,25.4,21.7,96,87,70,30.36,30.15,7,0,12,0.00
2013-1-6,37.2,35.4,33.6,32.6,31.0,29.0,94,84,74,30.13,29.99,13,0,14,0.00
2013-1-7,32.7,27.5,18.6,29.1,25.6,18.6,100,93,81,30.43,30.32,7,0,7,0.00
2013-1-8,43.1,24.1,12.2,32.3,22.0,12.2,100,93,63,30.39,30.29,8,0,8,0.00
2013-1-9,42.9,37.6,23.2,42.2,35.7,23.2,100,93,80,30.41,30.20,24,4,24,0.00
2013-1-10,40.2,35.7,28.0,33.8,32.0,28.0,100,87,72,30.61,30.42,6,0,6,0.00
2013-1-11,39.9,37.3,34.4,39.2,37.2,34.4,100,100,93,30.24,30.05,0,0,0,0.00
2013-1-12,50.6,44.2,36.5,49.3,43.9,36.5,100,99,95,30.13,30.07,0,0,0,0.00
2013-1-13,66.0,55.8,38.2,55.8,51.6,38.2,100,87,69,30.01,29.89,15,1,15,0.00
2013-1-14,39.4,36.1,31.5,37.3,31.1,27.6,95,82,74,30.35,30.20,14,1,14,0.00
2013-1-15,34.6,32.0,28.3,30.5,28.2,26.6,100,86,73,30.36,30.12,10,0,10,0.00
2013-1-16,34.7,33.2,31.1,34.6,32.9,31.0,100,99,93,29.98,29.86,8,0,8,0.00
2013-1-17,33.4,32.1,30.9,30.5,29.6,28.8,95,91,86,30.15,30.05,9,0,9,0.00
2013-1-18,29.5,23.1,18.1,19.4,15.4,11.0,92,72,47,30.46,30.25,24,2,24,0.00
2013-1-19,50.7,43.1,30.7,25.9,20.8,16.2,79,44,26,30.18,29.89,21,1,23,0.00
2013-1-20,41.7,33.0,22.8,28.1,17.6,11.6,62,53,41,30.09,29.76,33,7,33,0.00
2013-1-21,25.1,19.4,10.9,20.8,14.0,1.3,92,79,64,29.98,29.86,19,3,19,0.00
2013-1-22,11.6,7.5,5.0,7.6,1.0,-2.3,94,74,59,30.22,29.97,21,2,21,0.00
2013-1-23,13.1,8.8,4.1,8.1,1.9,-1.4,88,73,62,30.25,30.07,15,0,15,0.00
2013-1-24,17.7,13.6,6.5,8.1,2.7,-0.9,78,62,47,30.50,30.36,19,2,19,0.00
2013-1-25,16.9,11.4,5.8,15.1,8.3,0.9,95,87,69,30.49,30.00,12,0,12,0.00
2013-1-26,24.2,22.6,19.5,21.8,19.5,17.1,97,88,82,30.36,30.13,12,0,12,0.00
2013-1-27,31.2,26.7,17.8,21.5,18.6,15.0,89,72,58,30.54,30.40,6,0,6,0.00
2013-1-28,47.7,41.4,30.1,47.6,41.4,30.0,100,100,98,30.18,30.00,19,1,19,0.00
2013-1-29,60.0,47.2,40.2,56.0,46.1,40.2,100,96,75,30.07,29.90,9,0,9,0.00
2013-1-30,55.7,48.7,36.0,55.1,48.7,36.0,100,100,95,29.61,29.24,26,0,26,0.00
2013-1-31,26.9,23.4,20.4,22.4,15.4,12.3,96,71,59,29.81,29.59,27,4,27,0.00
2013-2-1,15.8,13.1,9.9,9.9,6.0,3.1,87,73,66,30.31,30.02,22,3,22,0.00
2013-2-2,22.7,15.6,8.0,22.4,12.1,4.0,100,86,75,30.30,29.95,10,0,10,0.00
2013-2-3,26.2,21.6,16.0,22.7,18.5,12.5,94,87,78,29.95,29.77,21,1,21,0.00
2013-2-4,25.8,22.8,16.2,23.8,18.7,10.2,99,84,70,30.03,29.84,15,0,15,0.00
2013-2-5,31.1,29.6,26.7,31.1,28.5,25.5,100,96,87,29.92,29.79,10,0,10,0.00
2013-2-6,28.6,24.4,13.4,25.0,19.8,12.4,96,83,68,30.34,30.12,14,0,14,0.00
2013-2-7,35.9,22.4,10.4,26.0,17.9,9.4,96,84,66,30.36,30.12,14,1,14,0.00
2013-2-8,34.3,28.7,22.1,34.3,27.0,19.9,100,93,87,30.05,29.78,28,4,28,0.00
2013-2-9,29.7,22.6,15.5,20.1,17.1,13.2,94,80,62,30.39,30.05,24,2,24,0.00
2013-2-10,42.6,22.8,5.2,23.7,14.6,3.6,94,74,43,30.39,30.11,15,0,15,0.00
2013-2-11,59.7,48.2,36.0,43.6,32.3,26.7,100,58,32,29.87,29.66,31,4,31,0.00
2013-2-12,38.9,33.3,26.6,27.1,25.2,23.6,92,72,60,30.02,29.89,17,1,17,0.00
2013-2-13,38.2,33.2,25.4,31.3,29.4,24.6,100,87,67,29.80,29.68,7,0,7,0.00
2013-2-14,41.9,36.7,28.5,31.4,29.1,25.5,89,74,58,29.96,29.90,14,0,14,0.00
2013-2-15,39.7,35.1,31.9,30.6,28.0,25.3,91,76,59,30.03,29.98,14,1,14,0.00
2013-2-16,26.7,24.1,21.3,21.0,18.8,16.4,93,80,66,30.00,29.89,14,0,14,0.00
2013-2-17,20.4,16.9,15.2,16.3,11.6,6.3,95,80,65,30.17,29.92,21,3,21,0.00
2013-2-18,40.2,24.9,6.3,24.2,15.2,4.4,93,69,44,30.31,30.02,10,0,10,0.00
2013-2-19,41.9,31.5,24.4,39.6,28.1,14.9,100,88,67,29.87,29.62,26,3,26,0.00
2013-2-20,19.4,18.0,16.5,13.7,11.7,9.0,87,76,68,30.15,29.99,21,2,21,0.00
2013-2-21,23.5,20.1,14.7,16.0,14.4,12.2,91,79,69,30.34,30.21,15,1,15,0.00
2013-2-22,28.0,26.4,24.7,26.2,23.9,17.0,100,91,70,30.20,30.08,16,2,16,0.00
2013-2-23,42.0,36.5,32.3,36.0,33.6,31.0,99,89,78,29.95,29.84,0,0,0,0.00
2013-2-24,29.0,27.8,26.4,24.0,21.9,19.9,89,78,73,30.09,29.92,19,1,19,0.00
2013-2-25,42.7,34.9,26.7,25.3,23.5,21.4,86,64,48,30.21,30.07,6,0,6,0.00
2013-2-26,35.1,33.6,31.8,34.1,30.0,23.6,100,87,64,30.06,29.66,21,4,21,0.00
2013-2-27,39.9,37.2,31.8,37.8,35.2,3.2,100,93,82,29.67,29.61,11,0,11,0.00
2013-2-28,32.9,31.9,30.4,32.0,30.2,27.8,100,93,87,29.74,29.62,13,1,13,0.00
2013-3-1,30.6,28.2,25.6,28.3,25.0,22.3,98,88,84,29.92,29.84,15,2,15,0.00
2013-3-2,25.0,23.6,22.5,22.0,20.4,18.1,92,87,77,29.89,29.86,15,2,15,0.00
2013-3-3,25.7,23.4,20.8,22.0,19.9,17.4,93,86,80,29.95,29.86,16,1,16,0.00
2013-3-4,32.4,24.2,19.0,20.9,18.1,14.8,91,78,60,30.06,29.95,17,1,17,0.00
2013-3-5,45.2,28.0,10.8,24.1,16.9,9.5,95,68,30,30.07,29.75,15,0,15,0.00
2013-3-6,38.1,35.1,29.7,32.3,28.8,26.4,100,78,63,30.06,29.83,13,0,13,0.00
2013-3-7,38.2,34.6,31.4,31.5,29.1,26.6,95,81,65,30.23,30.15,16,2,16,0.00
2013-3-8,40.1,34.7,29.8,28.0,26.0,23.8,85,71,59,30.36,30.28,20,3,20,0.00
2013-3-9,55.2,42.3,28.8,31.2,27.6,24.6,87,59,32,30.38,30.23,6,0,6,0.00
2013-3-10,60.9,42.9,27.2,32.0,27.0,23.6,90,59,27,30.24,30.08,14,0,16,0.00
2013-3-11,54.6,47.0,37.5,46.4,33.0,27.3,86,60,35,30.09,29.76,20,1,20,0.00
2013-3-12,51.1,40.4,35.7,48.0,35.8,26.1,100,84,67,29.97,29.75,17,1,17,0.00
2013-3-13,36.2,30.4,26.1,29.6,23.8,17.0,94,77,53,30.04,29.92,22,3,22,0.00
2013-3-14,36.7,31.1,22.8,20.0,17.2,14.7,86,57,43,30.13,30.07,23,5,23,0.00
2013-3-15,46.7,42.8,35.8,34.1,28.1,19.1,79,56,50,29.95,29.79,17,2,17,0.00
2013-3-16,37.9,36.3,34.0,37.8,35.5,32.8,100,97,95,29.89,29.64,15,0,19,0.00
2013-3-17,34.9,32.9,28.8,22.3,21.3,19.5,71,62,58,30.20,30.13,11,0,11,0.00
2013-3-18,32.0,29.9,27.1,30.0,26.6,22.7,99,87,79,30.12,29.80,19,2,19,0.00
2013-3-19,44.2,37.1,29.1,28.8,22.4,16.6,84,56,38,29.93,29.72,25,4,25,0.00
2013-3-20,37.2,32.8,27.4,24.3,18.9,14.6,78,57,44,29.92,29.79,20,3,20,0.00
2013-3-21,26.7,23.7,19.3,18.1,10.9,7.1,78,58,49,29.85,29.80,20,3,20,0.00
2013-3-22,30.6,28.4,24.8,19.9,18.2,16.3,71,65,58,29.99,29.89,15,1,15,0.00
2013-3-23,42.9,35.9,27.7,22.3,21.4,20.2,75,56,41,30.02,29.93,16,1,16,0.00
2013-3-24,39.2,36.4,22.8,27.4,21.8,19.6,88,56,48,29.97,29.61,13,1,13,0.00
2013-3-25,35.4,33.0,29.8,32.3,31.2,29.7,100,93,84,29.69,29.50,3,0,3,0.00
2013-3-26,40.9,35.9,30.8,31.7,29.4,26.2,93,78,57,30.02,29.88,17,2,18,0.00
2013-3-27,39.7,36.1,32.3,31.4,27.7,24.0,90,72,55,30.13,30.07,18,2,22,0.00
2013-3-28,37.9,35.5,32.1,33.2,31.6,30.1,98,86,75,30.24,30.15,11,0,11,0.00
2013-3-29,49.3,44.2,35.6,32.6,29.1,25.6,87,56,41,30.25,30.15,14,0,14,0.00
2013-3-30,53.4,45.7,29.2,28.1,23.4,17.8,93,44,27,30.25,30.11,11,0,11,0.00
2013-3-31,44.4,40.5,34.6,44.3,39.5,27.4,100,96,74,29.90,29.72,9,0,9,0.00
2013-4-1,41.3,36.3,31.1,33.4,22.5,12.7,93,60,38,29.98,29.74,26,4,26,0.00
2013-4-2,37.9,30.7,25.0,19.4,15.0,12.0,78,53,37,30.17,29.97,21,3,21,0.00
2013-4-3,37.4,29.6,24.1,23.2,14.2,8.5,74,54,34,30.40,30.14,26,2,26,0.00
2013-4-4,48.4,33.1,16.9,22.7,12.7,2.8,88,50,17,30.38,30.03,16,1,16,0.00
2013-4-5,53.0,47.4,38.0,27.8,21.9,15.6,48,36,26,30.12,29.93,25,5,25,0.00
2013-4-6,55.1,48.2,32.4,20.1,14.2,7.0,60,27,15,30.30,30.13,14,1,14,0.00
2013-4-7,68.6,57.2,40.1,43.1,34.3,20.0,59,43,32,30.13,29.89,11,1,18,0.00
2013-4-8,72.5,67.0,53.4,46.9,42.6,39.4,74,43,31,30.09,29.95,14,0,14,0.00
2013-4-9,77.8,70.5,58.8,50.8,48.4,46.8,68,47,34,30.10,29.95,14,1,15,0.00
2013-4-10,78.9,67.3,56.9,62.2,53.7,47.8,100,64,41,29.98,29.81,21,1,28,0.00
2013-4-11,74.8,62.5,50.8,57.7,54.0,49.5,100,77,48,29.87,29.72,15,0,15,0.00
2013-4-12,66.0,57.8,45.6,58.4,47.3,32.6,100,70,44,29.83,29.55,21,3,23,0.00
2013-4-13,55.2,48.3,42.0,34.0,32.3,30.9,67,54,41,29.96,29.84,21,3,21,0.00
2013-4-14,62.3,54.6,40.5,38.1,32.2,25.5,57,43,32,30.15,30.07,12,0,12,0.00
2013-4-15,63.3,59.7,57.2,46.0,44.5,42.9,66,57,48,30.17,30.11,24,4,24,0.00
2013-4-16,77.8,69.9,58.5,59.1,53.2,48.2,95,57,41,30.23,30.06,18,1,18,0.00
2013-4-17,65.8,61.2,49.9,54.2,53.0,46.2,100,75,62,30.24,30.17,10,0,10,0.00
2013-4-18,74.5,70.6,64.6,57.8,56.0,53.4,72,60,54,30.09,29.92,24,5,24,0.00
2013-4-19,72.1,56.9,44.8,60.8,48.1,33.5,90,73,56,29.82,29.51,26,2,26,0.00
2013-4-20,47.3,42.2,38.4,30.2,25.6,23.2,67,52,42,30.33,30.00,23,3,23,0.00
2013-4-21,54.2,47.6,35.5,24.0,20.1,13.3,54,34,25,30.58,30.47,14,1,14,0.00
2013-4-22,57.6,52.4,44.1,31.3,24.6,19.2,55,34,23,30.50,30.35,18,4,18,0.00
2013-4-23,68.5,61.5,49.4,38.6,35.6,28.7,57,39,23,30.22,30.07,12,1,12,0.00
2013-4-24,74.2,59.5,41.0,58.5,48.2,38.1,96,69,41,30.10,29.73,31,2,31,0.00
2013-4-25,58.4,52.9,41.6,33.0,28.3,23.2,64,39,27,30.31,30.19,17,2,17,0.00
2013-4-26,59.7,54.9,44.9,35.3,29.1,24.1,68,39,27,30.47,30.38,12,1,12,0.00
2013-4-27,68.8,62.9,45.1,39.1,32.9,27.6,61,34,23,30.41,30.26,14,2,14,0.00
2013-4-28,56.4,51.9,49.4,49.1,46.5,41.2,92,82,58,30.15,30.05,16,2,16,0.00
2013-4-29,58.9,56.5,50.9,54.3,50.5,46.7,100,81,72,30.07,30.01,11,1,11,0.00
2013-4-30,63.7,60.1,56.6,51.6,49.9,48.6,82,69,59,30.25,30.17,14,4,14,0.00
2013-5-1,71.5,65.4,52.6,43.6,35.1,27.9,58,34,22,30.40,30.34,15,3,15,0.00
2013-5-2,72.7,59.2,42.1,41.5,35.0,24.5,88,46,18,30.39,30.30,17,2,17,0.00
2013-5-3,68.7,59.1,42.6,43.3,38.9,28.6,90,51,27,30.31,30.24,19,3,19,0.00
2013-5-4,66.5,56.4,41.8,41.6,39.7,37.0,85,55,37,30.27,30.15,22,3,22,0.00
2013-5-5,68.8,55.9,40.1,41.3,32.8,15.1,93,49,13,30.19,30.08,25,2,25,0.00
2013-5-6,64.8,54.8,39.7,52.9,44.1,36.4,91,68,53,30.15,30.07,19,2,19,0.00
2013-5-7,66.5,61.9,58.0,56.8,53.8,50.0,95,75,56,30.05,29.97,16,2,16,0.00
2013-5-8,72.3,62.0,53.7,55.7,51.1,42.0,100,72,36,30.02,29.93,14,0,14,0.00
2013-5-9,69.1,61.9,54.1,60.5,56.6,50.2,100,83,57,30.03,29.94,14,0,14,0.00
2013-5-10,72.7,62.5,51.5,62.1,56.9,51.5,100,84,56,30.01,29.87,20,0,20,0.00
2013-5-11,56.8,54.5,52.3,55.3,52.1,47.8,96,92,85,29.81,29.78,10,0,10,0.00
2013-5-12,49.9,45.9,40.5,31.8,27.1,23.4,63,48,39,30.01,29.88,26,4,26,0.00
2013-5-13,49.2,41.1,34.9,30.6,26.7,20.4,83,58,38,30.16,30.00,19,2,19,0.00
2013-5-14,58.2,43.0,28.2,45.4,32.6,26.8,96,71,34,30.21,30.00,14,0,14,0.00
2013-5-15,81.3,76.0,68.2,61.5,53.9,51.5,75,47,37,29.88,29.75,24,3,27,0.00
2013-5-16,77.7,74.4,67.1,58.4,51.9,43.4,73,47,32,29.97,29.89,17,2,17,0.00
2013-5-17,79.3,74.8,60.7,56.3,52.2,47.8,76,46,33,30.13,30.06,16,1,16,0.00
2013-5-18,77.2,71.1,51.1,57.6,56.2,49.3,94,60,49,30.18,30.12,15,4,15,0.00
2013-5-19,67.5,65.0,58.2,60.1,58.1,55.7,91,79,70,30.16,30.08,12,3,12,0.00
2013-5-20,82.5,77.6,68.5,66.1,62.5,59.6,84,60,47,30.07,29.95,10,1,10,0.00
2013-5-21,87.5,82.5,71.4,65.6,61.8,57.8,76,51,38,29.99,29.86,12,1,12,0.00
2013-5-22,86.6,78.5,69.2,66.0,60.1,56.5,78,55,38,29.93,29.80,21,1,21,0.00
2013-5-23,77.9,69.0,62.9,65.3,59.7,55.3,100,75,47,29.87,29.77,19,2,19,0.00
2013-5-24,46.7,44.3,41.5,40.8,35.7,30.5,94,72,64,30.22,29.97,23,5,23,0.00
2013-5-25,57.5,53.3,49.0,37.0,35.5,33.7,58,51,43,30.25,30.17,24,8,24,0.00
2013-5-26,65.3,60.3,39.4,38.7,36.9,33.5,81,42,34,30.26,30.16,18,3,18,0.00
2013-5-27,66.2,56.4,36.2,52.8,43.2,34.6,96,65,33,30.31,30.15,9,0,9,0.00
2013-5-28,71.2,62.9,52.4,66.3,61.0,52.4,100,94,76,30.13,30.03,16,0,16,0.00
2013-5-29,84.6,80.4,71.1,60.0,58.0,52.4,67,47,35,30.14,30.09,19,2,19,0.00
2013-5-30,87.8,78.2,56.5,64.1,60.0,55.5,97,56,36,30.23,30.13,14,0,14,0.00
2013-5-31,89.1,83.9,73.5,63.4,60.5,54.7,68,46,32,30.16,30.03,12,1,12,0.00
2013-6-1,87.7,84.2,76.4,63.9,61.6,59.4,65,47,40,30.03,29.90,16,1,16,0.00
2013-6-2,80.7,77.1,71.8,63.9,59.0,55.3,72,54,43,29.89,29.85,18,2,18,0.00
2013-6-3,67.5,63.4,52.4,58.4,53.9,49.3,90,71,61,30.06,29.94,13,2,13,0.00
2013-6-4,71.1,58.5,41.0,49.7,45.1,39.8,97,65,39,30.16,30.06,14,1,14,0.00
2013-6-5,77.7,72.2,58.2,55.9,52.9,46.7,69,51,43,30.15,30.00,15,3,15,0.00
2013-6-6,62.2,60.8,59.6,60.9,59.4,57.8,100,95,89,29.93,29.84,14,1,14,0.00
2013-6-7,68.8,65.1,61.6,65.8,64.0,61.6,100,96,87,29.81,29.74,11,0,12,0.00
2013-6-8,69.0,63.6,56.2,57.7,54.9,52.2,96,75,60,30.16,29.97,10,0,10,0.00
2013-6-9,81.2,75.2,53.9,63.9,60.0,53.9,100,60,48,30.19,30.08,13,2,13,0.00
2013-6-10,76.7,69.1,62.6,68.9,64.8,61.2,100,87,66,29.99,29.80,18,1,18,0.00
2013-6-11,74.3,69.5,63.9,65.7,62.9,60.2,100,81,63,29.93,29.83,14,2,14,0.00
2013-6-12,80.8,76.5,68.9,67.5,64.1,59.4,88,66,50,29.93,29.83,12,1,12,0.00
2013-6-13,72.5,66.5,60.4,63.9,59.3,53.9,90,78,70,29.74,29.58,21,5,21,0.00
2013-6-14,74.0,69.3,61.0,56.8,54.6,52.4,76,60,50,30.01,29.89,16,2,16,0.00
2013-6-15,76.5,71.9,62.7,53.6,47.4,40.0,67,43,29,30.12,30.02,14,1,14,0.00
2013-6-16,71.7,68.9,60.5,66.7,63.8,59.9,100,84,67,29.98,29.90,18,1,18,0.00
2013-6-17,82.3,77.2,65.5,68.5,59.3,53.2,100,57,41,30.00,29.92,11,1,11,0.00
2013-6-18,77.2,71.3,63.1,64.7,62.4,60.4,98,74,60,29.96,29.87,12,0,12,0.00
2013-6-19,76.0,72.1,63.2,53.0,49.4,45.6,66,45,35,30.14,30.07,11,1,11,0.00
2013-6-20,82.7,76.0,65.4,59.2,56.4,52.0,72,52,36,30.27,30.20,12,1,12,0.00
2013-6-21,84.8,79.1,65.2,62.1,57.0,50.5,86,48,35,30.31,30.19,16,0,16,0.00
2013-6-22,87.8,81.7,70.7,65.4,62.4,58.7,82,54,39,30.27,30.12,11,0,11,0.00
2013-6-23,89.5,83.4,69.0,65.9,63.4,59.8,88,53,38,30.22,30.08,12,0,12,0.00
2013-6-24,87.8,83.5,73.2,66.1,63.5,60.3,78,52,41,30.20,30.06,11,1,13,0.00
2013-6-25,88.5,81.2,65.6,65.5,63.7,58.9,99,58,44,30.10,29.93,19,3,22,0.00
2013-6-26,80.0,76.6,69.5,68.9,66.4,64.3,95,71,59,29.95,29.86,12,0,12,0.00
2013-6-27,71.9,69.8,67.7,70.7,68.7,66.2,100,96,87,29.79,29.63,10,0,11,0.00
2013-6-28,76.8,70.3,61.0,68.4,63.7,58.0,100,81,65,29.64,29.55,14,0,14,0.00
2013-6-29,79.0,75.2,70.6,64.4,61.3,58.1,77,62,49,29.70,29.62,14,1,14,0.00
2013-6-30,83.0,73.8,67.6,71.3,64.5,61.2,92,74,49,29.88,29.81,16,0,16,0.00
2013-7-1,79.0,72.2,67.0,71.8,67.0,63.2,100,85,63,29.97,29.91,9,0,9,0.00
2013-7-2,79.5,76.3,72.7,73.8,69.9,66.7,95,81,67,30.11,30.06,11,0,11,0.00
2013-7-3,86.0,78.2,70.6,72.8,68.2,63.8,100,74,49,30.25,30.16,12,1,12,0.00
2013-7-4,86.7,80.1,71.1,74.6,67.5,62.7,100,68,47,30.27,30.17,10,0,10,0.00
2013-7-5,86.3,81.8,73.3,70.3,66.4,64.0,86,61,48,30.23,30.13,8,1,10,0.00
2013-7-6,89.2,82.9,68.6,71.3,67.4,62.3,100,61,44,30.24,30.08,9,0,11,0.00
2013-7-7,83.0,75.4,70.5,71.4,67.6,62.8,100,79,52,30.14,30.05,20,0,20,0.00
2013-7-8,81.8,75.5,69.5,72.4,66.8,62.0,100,77,53,30.17,30.08,14,1,16,0.00
2013-7-9,81.0,76.3,69.2,72.1,70.1,68.4,100,82,69,30.13,30.01,11,0,11,0.00
2013-7-10,85.6,75.2,67.0,71.3,69.1,64.0,100,83,61,30.06,29.86,35,1,35,0.00
2013-7-11,78.0,72.1,62.8,67.3,61.4,56.6,100,71,52,30.04,29.97,12,1,12,0.00
2013-7-12,74.8,66.8,58.7,65.0,61.4,58.7,100,84,65,30.11,30.01,9,0,9,0.00
2013-7-13,80.2,75.3,67.1,68.4,65.2,62.9,91,72,58,30.32,30.18,10,1,10,0.00
2013-7-14,87.5,78.2,65.6,69.0,66.4,63.7,100,70,47,30.37,30.31,17,2,17,0.00
2013-7-15,89.4,82.1,64.9,71.2,67.6,64.3,100,63,46,30.40,30.29,11,0,11,0.00
2013-7-16,90.8,86.5,77.8,72.7,69.3,65.7,80,58,45,30.36,30.28,11,1,11,0.00
2013-7-17,90.5,85.4,76.9,73.3,70.8,64.9,86,63,48,30.35,30.20,12,1,12,0.00
2013-7-18,93.0,87.2,25.1,73.2,71.1,0.0,84,60,47,30.22,30.08,11,1,11,0.00
2013-7-19,91.5,85.5,77.7,73.6,70.7,67.9,77,62,50,30.08,29.92,15,1,15,0.00
2013-7-20,85.0,80.1,74.1,70.1,67.6,64.8,79,66,59,29.96,29.88,16,1,16,0.00
2013-7-21,83.5,79.0,74.3,69.1,67.7,65.5,82,69,55,30.03,29.94,8,0,8,0.00
2013-7-22,79.7,73.7,67.0,74.1,71.2,67.0,100,93,72,29.97,29.81,10,0,10,0.00
2013-7-23,80.3,74.8,66.9,70.1,66.8,62.1,100,77,62,29.81,29.72,13,1,14,0.00
2013-7-24,73.2,68.6,59.4,60.9,55.1,53.4,97,63,51,30.02,29.84,13,2,13,0.00
2013-7-25,75.5,70.7,61.4,56.8,53.4,49.8,81,55,44,30.15,30.05,13,1,13,0.00
2013-7-26,79.6,74.8,64.6,60.8,56.6,53.3,79,54,42,30.12,30.04,18,0,18,0.00
2013-7-27,70.2,67.4,64.6,69.4,67.1,63.3,100,99,90,30.01,29.91,6,0,6,0.00
2013-7-28,78.0,73.7,65.5,61.2,56.5,52.6,76,56,44,30.05,29.94,16,2,16,0.00
2013-7-29,73.7,69.5,61.7,57.6,54.7,51.6,86,60,48,30.23,30.10,14,2,14,0.00
2013-7-30,76.0,70.8,60.4,59.5,56.9,54.3,85,63,50,30.26,30.19,10,0,12,0.00
2013-7-31,79.4,73.6,60.8,64.7,60.5,57.7,90,65,49,30.17,30.00,6,0,9,0.00
2013-8-1,77.2,72.4,65.5,68.6,63.4,59.3,100,75,56,29.95,29.87,12,1,17,0.00
2013-8-2,77.1,73.7,65.7,61.7,56.8,52.2,81,56,43,30.03,29.96,18,2,18,0.00
2013-8-3,74.4,68.7,63.6,65.4,63.4,61.0,100,84,65,30.02,29.96,16,0,16,0.00
2013-8-4,72.0,66.7,56.4,57.8,54.8,52.0,93,67,52,30.12,30.04,16,2,16,0.00
2013-8-5,73.9,61.9,50.7,56.5,53.2,49.4,100,76,45,30.14,30.06,9,0,12,0.00
2013-8-6,80.2,74.3,64.2,61.0,58.5,54.6,79,58,47,30.08,30.01,13,1,13,0.00
2013-8-7,81.2,74.4,65.4,68.5,66.6,64.7,100,78,62,30.07,29.97,17,1,17,0.00
2013-8-8,82.5,73.6,68.8,74.6,70.3,66.3,100,91,65,30.03,29.97,9,0,9,0.00
2013-8-9,77.5,73.3,68.0,74.1,71.1,68.0,100,93,78,30.02,29.92,14,0,14,0.00
2013-8-10,80.0,74.7,66.8,65.9,62.7,58.1,93,67,53,30.12,30.07,14,1,14,0.00
2013-8-11,82.7,75.8,66.0,69.8,65.7,62.3,100,72,52,30.15,30.05,12,1,12,0.00
2013-8-12,80.6,76.4,67.9,66.2,63.2,60.1,92,65,50,30.10,29.96,10,0,10,0.00
2013-8-13,74.0,69.4,62.2,68.8,62.1,51.8,100,79,64,29.93,29.82,18,2,18,0.00
2013-8-14,67.3,59.0,50.1,54.7,51.6,49.1,99,78,59,30.15,29.96,15,2,15,0.00
2013-8-15,72.1,58.9,47.3,54.1,49.7,44.6,100,76,40,30.20,30.14,7,0,8,0.00
2013-8-16,76.8,71.2,60.1,59.8,56.0,51.7,82,60,42,30.20,30.16,8,0,8,0.00
2013-8-17,75.3,70.3,58.1,58.8,54.9,51.0,96,60,46,30.29,30.24,15,2,15,0.00
2013-8-18,70.8,66.8,59.5,61.8,58.2,53.8,100,74,61,30.29,30.17,11,1,11,0.00
2013-8-19,74.2,69.0,60.8,66.8,65.0,60.8,100,88,72,30.16,30.11,6,0,6,0.00
2013-8-20,79.5,74.8,64.8,62.8,60.0,56.4,91,61,48,30.26,30.18,10,0,10,0.00
2013-8-21,84.5,77.0,62.2,69.1,65.7,60.8,98,70,54,30.26,30.11,9,0,9,0.00
2013-8-22,82.5,73.7,68.5,70.0,67.4,65.2,100,82,56,30.14,30.01,14,1,14,0.00
2013-8-23,78.5,72.7,65.3,70.3,62.3,55.8,100,72,46,30.19,30.08,8,0,8,0.00
2013-8-24,79.2,72.2,29.5,58.8,55.7,16.1,76,57,39,30.38,30.29,9,0,9,0.00
2013-8-25,80.2,69.3,53.1,61.7,57.5,52.8,100,70,42,30.43,30.29,6,0,10,0.00
2013-8-26,81.5,77.2,65.8,64.7,62.9,59.2,81,62,52,30.26,30.04,15,1,15,0.00
2013-8-27,78.6,75.3,71.6,74.0,70.2,68.1,99,85,71,30.06,29.97,5,0,7,0.00
2013-8-28,71.8,68.7,67.2,71.7,68.7,67.2,100,100,100,29.96,29.87,0,0,0,0.00
2013-8-29,82.5,75.0,37.2,72.3,65.2,23.2,100,73,54,30.09,30.04,7,0,7,0.00
2013-8-30,84.4,78.8,64.8,68.9,66.4,64.3,100,67,52,30.07,29.90,12,0,12,0.00
2013-8-31,84.1,78.8,70.4,70.0,67.4,61.3,97,69,49,29.91,29.83,13,0,13,0.00
2013-9-1,76.5,70.0,66.2,75.0,69.1,66.2,100,97,82,29.96,29.82,9,0,9,0.00
2013-9-2,82.0,75.1,65.9,70.9,67.7,65.8,100,79,60,29.87,29.77,17,1,17,0.00
2013-9-3,70.5,66.3,61.5,62.7,57.1,53.9,100,73,58,30.06,29.93,18,3,18,0.00
2013-9-4,73.8,69.6,61.0,59.3,56.4,53.9,89,64,50,30.13,30.08,7,1,12,0.00
2013-9-5,71.0,63.5,52.0,60.9,53.2,47.1,98,71,47,30.24,30.11,15,1,15,0.00
2013-9-6,71.1,55.6,44.1,51.6,47.3,42.7,100,78,39,30.29,30.21,8,0,8,0.00
2013-9-7,75.7,59.3,45.0,57.6,50.1,45.0,100,76,38,30.22,30.04,10,0,10,0.00
2013-9-8,76.3,71.7,63.9,65.1,63.2,60.5,99,75,63,30.10,29.99,13,1,13,0.00
2013-9-9,73.0,67.7,58.2,65.1,60.2,50.8,100,78,62,30.20,30.10,10,1,10,0.00
2013-9-10,86.7,80.1,64.4,73.2,70.6,64.0,99,74,61,30.20,30.14,13,1,13,0.00
2013-9-11,86.7,79.3,70.2,73.0,70.5,65.4,100,76,57,30.23,30.09,20,0,20,0.00
2013-9-12,79.8,70.7,62.9,70.7,66.9,62.8,100,89,65,30.00,29.82,25,1,25,0.00
2013-9-13,62.1,56.3,48.7,58.3,53.4,48.4,100,90,77,30.03,29.89,14,1,14,0.00
2013-9-14,60.9,51.8,45.6,49.0,46.3,41.6,100,83,58,30.22,30.03,15,0,15,0.00
2013-9-15,71.4,54.4,41.9,57.5,49.0,41.9,100,85,52,30.23,30.13,12,0,12,0.00
2013-9-16,66.7,60.6,54.2,56.3,53.9,50.8,100,79,63,30.33,30.18,12,1,12,0.00
2013-9-17,65.2,57.2,45.6,47.1,43.7,40.0,95,63,40,30.43,30.34,8,0,10,0.00
2013-9-18,69.5,52.9,38.9,51.0,45.1,38.8,100,79,43,30.35,30.20,11,0,11,0.00
2013-9-19,71.8,64.5,50.3,61.9,59.5,50.3,100,85,67,30.20,30.11,7,0,7,0.00
2013-9-20,77.6,71.7,60.7,64.0,62.9,58.7,96,75,61,30.06,29.93,11,0,11,0.00
2013-9-21,69.0,61.8,18.6,65.3,60.3,15.0,100,95,85,29.79,29.72,26,1,26,0.00
2013-9-22,58.9,55.9,52.8,54.8,50.0,48.2,100,81,68,30.00,29.91,8,1,14,0.00
2013-9-23,55.8,51.2,43.8,46.2,43.8,41.5,100,77,64,30.15,30.11,7,1,13,0.00
2013-9-24,66.9,49.8,38.6,51.1,44.2,38.6,100,84,48,30.18,30.02,0,0,6,0.00
2013-9-25,68.9,59.8,43.6,53.7,50.7,43.6,100,74,53,30.02,29.94,0,0,6,0.00
2013-9-26,72.2,62.9,49.1,53.3,49.9,45.8,100,66,40,30.15,30.03,9,0,11,0.00
2013-9-27,70.7,63.7,50.4,56.2,53.6,49.3,96,71,52,30.27,30.19,6,0,9,0.00
2013-9-28,64.7,60.4,51.0,55.4,51.3,49.0,100,73,62,30.33,30.26,10,2,11,0.00
2013-9-29,70.1,62.7,52.0,54.4,52.4,50.0,95,71,54,30.20,30.08,6,0,11,0.00
2013-9-30,70.3,63.7,55.9,60.5,57.9,52.3,100,82,64,30.12,30.04,0,0,9,0.00
2013-10-1,73.7,67.8,57.5,60.2,59.2,57.5,100,75,60,30.11,30.05,8,2,12,0.00
2013-10-2,75.0,71.2,62.5,63.7,62.2,61.1,96,74,62,30.14,30.09,6,1,12,0.00
2013-10-3,76.4,69.9,55.1,67.0,64.5,55.1,100,84,65,30.16,30.07,0,0,6,0.00
2013-10-4,78.4,73.7,66.8,67.4,64.9,62.5,100,75,60,30.16,30.08,6,1,12,0.00
2013-10-5,78.6,73.6,66.7,68.2,66.6,64.9,99,80,64,30.16,30.03,0,0,9,0.00
2013-10-6,83.8,77.1,66.3,65.7,62.0,57.8,97,61,42,30.01,29.84,5,0,18,0.00
2013-10-7,65.2,54.8,46.0,63.4,49.6,43.7,100,84,62,30.09,29.74,9,1,20,0.00
2013-10-8,64.3,58.1,47.6,48.2,45.3,41.0,97,65,44,30.34,30.25,5,0,11,0.00
2013-10-9,63.3,57.5,40.7,46.7,42.7,39.2,100,60,41,30.35,30.29,6,1,10,0.00
2013-10-10,59.1,54.2,48.8,52.2,48.8,45.4,100,83,63,30.24,30.13,0,0,5,0.00
2013-10-11,59.1,56.0,52.4,59.1,56.0,52.4,100,100,100,30.14,30.06,0,0,5,0.00
2013-10-12,70.1,65.8,59.6,61.0,58.7,57.6,100,78,67,30.21,30.14,5,0,13,0.00
2013-10-13,62.9,59.6,56.7,58.6,56.9,55.5,100,91,79,30.33,30.28,6,1,10,0.00
2013-10-14,63.2,60.0,55.1,58.2,57.3,55.1,100,91,83,30.34,30.25,0,0,0,0.00
2013-10-15,68.4,63.4,51.2,56.9,55.3,51.2,100,76,62,30.23,30.09,8,1,11,0.00
2013-10-16,61.6,59.5,54.3,61.6,58.4,54.1,100,96,82,30.03,29.90,0,0,1,0.00
2013-10-17,59.7,55.5,49.7,58.8,54.4,48.9,100,96,87,29.93,29.66,7,1,18,0.00
2013-10-18,58.2,52.9,45.1,44.6,42.8,41.1,91,70,53,30.05,29.98,11,2,17,0.00
2013-10-19,54.0,43.7,36.4,47.9,42.0,36.4,100,94,72,29.98,29.78,14,1,19,0.00
2013-10-20,54.7,52.0,46.1,40.0,38.6,37.6,77,61,53,30.06,30.02,12,2,16,0.00
2013-10-21,64.3,47.1,31.9,43.2,37.7,31.9,100,75,40,30.14,29.96,0,0,10,0.00
2013-10-22,49.2,44.7,39.4,41.4,35.3,32.0,98,71,54,29.96,29.89,6,1,16,0.00
2013-10-23,41.3,39.3,36.8,39.8,38.3,36.4,99,96,93,29.89,29.74,4,0,15,0.00
2013-10-24,42.2,38.0,33.6,33.4,31.2,29.0,91,77,62,30.13,30.01,5,1,15,0.00
2013-10-25,44.5,37.1,32.4,34.3,32.5,31.0,94,84,63,30.31,30.13,5,0,13,0.00
2013-10-26,49.7,37.5,25.9,29.6,27.0,24.3,100,71,37,30.26,29.92,6,0,17,0.00
2013-10-27,48.1,44.1,32.5,35.4,31.8,30.1,92,63,51,30.15,30.08,5,1,18,0.00
2013-10-28,56.5,39.2,26.4,36.5,31.8,26.4,100,79,42,30.29,30.15,4,0,10,0.00
2013-10-29,57.1,50.9,37.8,38.7,36.9,35.5,93,60,44,30.41,30.31,4,0,12,0.00
2013-10-30,63.6,56.2,43.6,48.9,46.8,39.8,92,72,57,30.25,30.15,0,0,15,0.00
2013-10-31,59.7,56.4,51.1,59.7,56.4,51.1,100,100,100,30.02,29.62,0,0,9,0.00
2013-11-1,61.3,56.5,49.3,57.1,49.3,43.5,100,79,52,29.73,29.40,12,2,44,0.00
2013-11-2,51.3,47.5,41.9,44.8,41.8,39.2,100,82,66,29.89,29.69,7,1,18,0.00
2013-11-3,45.7,39.4,30.1,34.0,30.7,27.9,91,72,53,30.46,30.23,11,2,16,0.00
2013-11-4,41.9,33.1,23.8,27.8,24.1,21.4,100,72,46,30.58,30.47,8,0,15,0.00
2013-11-5,50.9,45.0,37.1,30.4,28.6,26.0,72,53,40,30.57,30.41,0,0,13,0.00
2013-11-6,68.3,58.8,41.1,49.2,45.9,35.2,81,63,47,30.28,29.99,8,1,19,0.00
2013-11-7,45.3,41.2,37.4,42.3,35.2,26.8,95,80,63,30.11,30.00,10,1,18,0.00
2013-11-8,41.8,38.9,35.3,29.5,27.2,26.4,74,63,55,30.29,30.21,10,3,24,0.00
2013-11-9,54.1,41.3,25.8,31.0,27.6,24.8,98,63,32,30.30,29.98,6,0,16,0.00
2013-11-10,45.2,42.1,38.6,33.9,30.2,28.7,69,62,56,30.23,30.02,14,6,31,0.00
2013-11-11,50.4,45.7,37.0,39.7,30.0,24.5,94,56,38,30.23,30.02,7,1,15,0.00
2013-11-12,31.2,28.9,25.4,27.5,23.5,20.9,98,80,65,30.42,30.26,11,2,21,0.00
2013-11-13,34.0,29.1,25.2,24.3,22.4,20.7,92,77,62,30.51,30.37,7,1,19,0.00
2013-11-14,46.9,38.7,26.9,26.2,22.6,18.4,88,56,32,30.32,30.22,0,0,15,0.00
2013-11-15,51.6,37.0,24.6,39.0,26.3,22.5,97,71,32,30.26,30.17,5,0,19,0.00
2013-11-16,58.4,51.8,38.6,46.6,44.0,38.6,100,76,60,30.29,30.15,6,0,14,0.00
2013-11-17,53.6,52.0,47.8,53.6,52.0,47.8,100,100,100,30.05,29.61,0,0,14,0.00
2013-11-18,53.1,48.2,38.9,51.3,34.4,27.4,98,60,44,29.99,29.69,12,4,33,0.00
2013-11-19,36.1,33.3,26.7,27.0,25.9,24.6,92,74,66,30.40,30.25,11,2,18,0.00
2013-11-20,42.3,30.4,20.6,25.4,20.6,15.9,100,72,35,30.53,30.40,14,1,22,0.00
2013-11-21,47.7,41.4,30.5,36.6,33.9,27.0,87,75,61,30.49,30.31,0,0,7,0.00
2013-11-22,51.6,47.8,41.1,51.6,47.5,38.5,100,99,90,30.18,30.04,9,2,27,0.00
2013-11-23,35.6,28.5,19.1,27.3,20.4,10.0,96,72,57,30.26,30.09,18,7,33,0.00
2013-11-24,21.8,18.3,16.0,17.7,12.1,8.6,93,76,68,30.49,30.27,13,2,22,0.00
2013-11-25,33.2,22.3,12.7,23.4,15.1,9.7,92,75,49,30.49,30.22,6,0,10,0.00
2013-11-26,32.6,32.1,31.3,32.6,32.1,31.3,100,100,100,30.14,29.74,0,0,0,0.00
2013-11-27,31.3,26.8,21.9,30.1,23.2,17.4,96,86,79,29.97,29.65,18,6,28,0.00
2013-11-28,26.4,25.6,23.0,22.2,19.6,14.8,85,78,65,30.40,30.35,6,0,14,0.00
2013-11-29,31.2,27.4,19.9,22.5,21.2,18.8,96,78,66,30.67,30.62,0,0,7,0.00
2013-11-30,32.6,22.8,13.5,23.7,19.2,13.0,98,87,68,30.67,30.32,9,1,16,0.00
2013-12-1,39.5,34.4,24.7,32.7,29.8,23.6,95,84,68,30.18,30.01,0,0,0,0.00
2013-12-2,47.9,41.5,34.2,37.2,36.3,34.2,100,82,65,29.95,29.84,0,0,7,0.00
2013-12-3,51.2,42.4,34.8,41.9,38.4,34.4,100,87,63,29.96,29.89,4,0,14,0.00
2013-12-4,52.7,45.1,33.3,43.4,40.2,33.3,100,84,68,30.08,29.95,0,0,10,0.00
2013-12-5,53.5,50.7,45.2,53.5,50.3,44.3,100,99,86,29.99,29.90,0,0,22,0.00
2013-12-6,36.6,33.7,29.9,35.2,32.9,29.9,100,97,92,30.20,30.09,4,0,12,0.00
2013-12-7,27.8,25.3,21.5,24.4,21.3,18.2,90,85,80,30.57,30.43,5,0,14,0.00
2013-12-8,24.9,20.8,16.1,24.9,19.0,14.7,100,93,84,30.57,30.23,5,0,12,0.00
2013-12-9,35.6,33.4,31.1,35.6,31.8,28.6,100,94,87,30.10,30.01,6,1,16,0.00
2013-12-10,30.5,26.6,23.0,27.1,21.3,14.2,93,81,64,30.16,29.99,11,2,25,0.00
2013-12-11,27.7,24.6,19.9,22.6,16.5,13.6,94,72,59,30.34,30.20,10,1,20,0.00
2013-12-12,21.2,18.3,14.4,9.5,8.1,6.4,78,64,58,30.45,30.19,9,1,23,0.00
2013-12-13,31.7,27.7,22.7,20.5,18.8,14.6,89,70,60,30.27,30.19,6,0,17,0.00
2013-12-14,31.7,30.4,27.3,31.7,30.4,27.3,100,100,100,30.19,29.76,0,0,11,0.00
2013-12-15,29.1,27.2,25.4,27.5,23.9,19.1,94,87,76,29.89,29.81,17,3,31,0.00
2013-12-16,23.2,22.2,17.5,21.0,18.6,13.2,92,86,81,30.14,30.04,5,0,10,0.00
2013-12-17,33.4,30.7,26.4,32.7,29.1,26.4,100,94,86,29.98,29.92,5,0,10,0.00
2013-12-18,28.3,27.7,26.9,24.0,23.3,22.7,85,83,80,30.17,30.11,6,1,17,0.00
2013-12-19,48.0,32.6,15.9,35.0,27.3,15.9,100,83,57,30.10,30.05,7,0,24,0.00
2013-12-20,40.6,38.1,36.5,38.4,37.2,35.5,100,96,89,29.99,29.94,0,0,0,0.00
2013-12-21,43.1,41.0,38.6,43.1,41.0,38.6,100,100,100,29.94,29.85,5,0,9,0.00
2013-12-22,60.9,58.2,54.3,55.9,51.5,50.3,100,79,68,29.94,29.80,7,1,29,0.00
2013-12-23,42.6,32.3,-15.7,42.0,30.3,22.7,99,86,71,30.26,30.10,13,2,23,0.00
2013-12-24,27.1,19.3,14.3,23.1,12.6,8.5,96,75,62,30.48,30.24,14,2,22,0.00
2013-12-25,26.5,18.5,11.2,18.2,12.8,8.9,94,79,61,30.50,30.26,7,0,13,0.00
2013-12-26,33.6,30.6,26.9,28.2,22.4,17.1,92,72,62,30.31,30.16,11,1,23,0.00
2013-12-27,37.8,32.4,24.6,25.7,24.6,22.9,94,74,59,30.33,30.28,5,0,18,0.00
2013-12-28,49.8,42.2,31.9,31.0,30.0,29.4,91,64,45,30.23,30.12,11,1,26,0.00
2013-12-29,40.0,37.1,33.7,40.0,37.1,33.7,100,100,100,29.82,29.63,8,0,14,0.00
2013-12-30,26.3,23.7,21.9,24.7,19.6,16.8,94,84,75,30.17,30.11,11,1,18,0.00
2013-12-31,25.2,22.4,20.2,21.8,18.9,16.7,95,86,82,30.26,30.10,25,6,28,0.00
2014-1-1,37.8,33.4,27.5,28.9,26.8,24.6,94,77,63,30.28,30.10,5,0,8,0.00
2014-1-2,29.5,25.7,13.4,27.0,24.4,12.1,100,95,87,29.91,29.66,9,1,19,0.00